SL-16 DEB, 39725

Orbit data source: Space-Track

SL-16 DEB, 39725 is space debris in LEO originally from a launch on Fri, 25 Dec 1992 UTC launched from the Tyuratam Missile And Space Complex (TTMTR). Debris objects in space refer to the collection of defunct objects orbiting the Earth. Examples of debris include non-operational satellites, rocket bodies, and fragments generated from explosions, collisions, or faulty payload assembly.

Loading next visibility...
Identifier
39725, 1992-093KR
Orbit
LEO
Country
Flag of CISCIS
Related business
Manufacturer
Unknown
Mission
Spacecraft
Bus & Motor
Unknown
Mass
Unknown
Launch date (UTC)
1992-12-25 (33 years ago)
Launch vehicle
Unknown
Launch site
Tyuratam Missile And Space Complex (TTMTR)
Object type
Payload
Rocket body
Debris
Shape & HBR
Unknown shape, 0.1 m
Radar Cross Section
Medium (>0.1 m² and <1 m²)

Expand to show TLE details & history
Last TLE update: 4 days ago

TLE from 4 days ago
0 SL-16 DEB
1 39725U 92093KR  26169.58231830  .00001133  00000-0  54677-3 0  9993
2 39725  71.1748 119.0322 0082536 251.1045 108.1120 14.18950707627095
Epoch: 2026-06-18T13:58Z
TLE epoch observation values (Epoch: 2026-06-18T13:58:32.301Z)
Latitude
0.00003°
Longitude
2.57405°
Altitude
850.256 km
Speed
7.418 km/s
True Right ascension
07h 56m 07s
True Declination
0° 00' 00"
Sunlit
Object was in daylight at epoch
Visualization orbit readout
Latitude
Unknown
Longitude
Unknown
Altitude
Unknown
Speed
Unknown
Apparent Right ascension
Unknown
Apparent Declination
Unknown
Sunlit
N/A
Visualization observer readout
Local Sidereal Time
05:33:18
Azimuth
Unknown
Elevation
Unknown
Doppler factor
Unknown
Orbital elements
Apogee altitude
886.274 km
Perigee altitude
767.341 km
Semi-major axis
7,204.944 km
Eccentricity
0.00825
Inclination
71.1748°
RAAN
119.0322°
Arg. of periapsis
251.1045°
True anomaly
109.00802°
Mean anomaly
108.112°
Eccentric anomaly
108.5603°
Mean motion
3.54893 °/min
Orbital period
101.44 mins
BSTAR
0.00054677
Loading maneuver chart data...
Computing Atmospheric mass density...
Loading historical data...
Loading historical data...
Loading historical data...
Loading historical data...
Loading historical data...
Loading historical data...
Loading historical data...

Documentation

Showing up to 5 results
|